Strona główna
METAR-TAF:

METAR-TAF

Lotnisko :

RAF Fairford

Fairford, Anglia

Szerokość geograficzna: 51-41N, Długość geograficzna: 001-47W, wysokość: 87 m

Aktualna obserwacja pogody

Raport powstał 1 godzina i 1 minut temu, godzina 03:56 UTC
Wiatr 5 kt od północno-północny wschód
Temperatura 10°C
Wilgotność 76%
Ciśnienie 1023 hPa
Widzialność 10 km lub więcej
bezchmurnie

METAR: EGVA 010356Z AUTO 03005KT 9999 CLR 10/06 A3022 RMK AO2 SLP235 T00990061 $

czas: 05:57 (04:57 UTC)


TAF: brakujący

Obserwacja i prognoza pogody dla ponad 4000 lotnisk (raport METAR i TAF).

Dostępne stacje oznaczono żółtymi i czerwonymi punktami na mapie.

Najedź kursorem aby zobaczyć nazwę stacji.

Kliknij aby zobaczyć obserwacje i prognozy pogody.

Aby zmienić mapę: kliknij na zielony przycisk z czarnym krzyżykiem, aby powiększyć; na zielony przycisk z myślnikiem, aby pomniejszyć; na zielone strzałki, aby przejść do map sąsiednich.


METAR-TAF: